NOAA 16 DEB

Satellite information

Favourite Embed

Satellite Type and Status

DEBRISIN ORBIT

Key statistics

Satellite NOAA 16 DEB at a glance.

Uptime

9055

Days in orbit

Revolutions

≈ 14.5

Per day

Orbit

SSO

Sun Synchronous Orbit

Inclination

99.0

Latest

Satellite identification and parameters

Extended collection of information and parameters for NOAA 16 DEB.

Object identification

Identified? True

Debris? True

Object name: NOAA 16 DEB

International designator: 2000-055ES

Object number (NORAD): 41237

Object ID (CCSDS): 41237

Country: UNITED STATES OF AMERICA (US)

Current information (Y/N): Y

RCS size: SMALL

Orbital parameters

Period: 99.347 minutes

Inclination: 99.0132 deg

SMA: 7105.535 km

Apoapsis: 756.521 km

Periapsis: 698.28 km

RAAN: 44.5309 deg

Eccentricy: 0.0040983

Argument of periapsis: 4.2728 deg

Mean anomaly: 355.8806 deg

Mean motion: 14.49464472 rev/day

Mean motion (dot): 0.00005324 rev/day2

B* drag term: 0.0013881 1/REarth

Two-line elements (TLE)

Creation date: July 5, 2025, 5:45 p.m.

Reference frame: TEME

Reference center: EARTH

Epoch: July 5, 2025, 1:10 p.m. UTC

TLE line 0: 0 NOAA 16 DEB

TLE line 1: 1 41237U 00055ES 25186.54863755 .00005324 00000-0 13881-2 0 9999

TLE line 2: 2 41237 99.0132 44.5309 0040983 4.2728 355.8806 14.49464472499962

Live tracking on map

Real-time ground track for satellite NOAA 16 DEB.

In-orbit conjunctions

A list of the most updated potential collisions computed for object NOAA 16 DEB.

Target Orbit TCA Probability of collision Miss distance Type
FENGYUN 1C DEB SSO 2025-05-30 20:28:43 0.0001093936 45.0 (m) DEBRIS
CHUANG XIN 1 (CZ-1) SSO 2024-12-31 14:21:45 0.001180707 40.0 (m) PAYLOAD

Associated space launch

The NOAA K, L and M POES satellites begin the fifth generation of improved environmental monitoring in support of NOAA missions. The instrument payload has significant improvements and additions/deletions. The instrument changes have effected the spacecraft subsystems and data formats.

NOAA 16 DEB was lifted into orbit during the mission ‘Titan II SLV | NOAA 16’, on board a Titan II SLV space rocket.

The launch took place on Sept. 21, 2000, 10:22 a.m. from Space Launch Complex 4W.

For more information about the launch, click the button.

Launch to space Titan II SLV | NOAA 16
Titan II SLV | NOAA 16

Agency: N/A

Status: Launch Successful

Launch date: Sept. 21, 2000, 10:22 a.m. UTC

Rocket: Titan II SLV

Launch pad: Space Launch Complex 4W

Location: Vandenberg SFB, CA, USA

...

Latest news about this satellite

There are no fresh news available about this satellite. Check back as we update our databases every day.


Newsletter sign-up

Weekly statistics, charts and insights to help you stay on top of the space industry.